This demonstration page uses our WeatherBlox Daily Observations layout. Learn more.

Left ArrowRight Arrow

53.60534, 11.34579

Hourly Observations for March 2, 2021

Temp ( °F °C ) Dew Point ( °F °C ) Humidity (%) Winds ( mph kmh ) Pressure ( in mb ) Visibility ( mi km ) Precip ( " mm )
7:20 am 07:20 Cloudy with Freezing Fog 32 0 30 -1 93 93 VRB 1 2 30.54 1034 0.06 0.1 N/A
7:50 am 07:50 Cloudy with Freezing Fog 32 0 30 -1 93 93 VRB 1 2 30.54 1034 0.03 0.05 N/A
8:20 am 08:20 Cloudy with Freezing Fog 32 0 32 0 100 100 VRB 1 2 30.57 1035 0.09 0.15 N/A
8:50 am 08:50 Cloudy with Freezing Fog 32 0 32 0 100 100 VRB 1 2 30.57 1035 0.09 0.15 N/A
9:20 am 09:20 Cloudy with Fog 34 1 32 0 93 93 VRB 1 2 30.57 1035 0.09 0.15 N/A
9:50 am 09:50 Cloudy with Fog 34 1 34 1 100 100 VRB 1 2 30.57 1035 0.06 0.1 N/A
10:20 am 10:20 Cloudy with Fog 36 2 34 1 93 93 VRB 1 2 30.57 1035 0.06 0.1 N/A
10:50 am 10:50 Mostly Cloudy with Fog 36 2 36 2 100 100 VRB 2 4 30.57 1035 0.06 0.1 N/A
11:20 am 11:20 Mostly Cloudy with Fog 36 2 36 2 100 100 VRB 1 2 30.57 1035 0.09 0.15 N/A
11:50 am 11:50 Mostly Cloudy with Fog 37 3 37 3 100 100 VRB 1 2 30.57 1035 0.16 0.25 N/A
12:20 pm 12:20 Cloudy with Fog 37 3 37 3 100 100 VRB 1 2 30.57 1035 0.22 0.35 N/A
12:50 pm 12:50 Mostly Cloudy with Fog 39 4 37 3 93 93 VRB 3 6 30.57 1035 0.43 0.7 N/A
1:20 pm 13:20 Mostly Cloudy with Fog 39 4 39 4 100 100 VRB 1 2 30.54 1034 0.56 0.9 N/A
1:50 pm 13:50 Mostly Cloudy with Mist and Fog 41 5 41 5 100 100 VRB 2 4 30.54 1034 1.3 2.1 N/A
2:20 pm 14:20 Partly Cloudy 43 6 43 6 100 100 VRB 2 4 30.54 1034 5.59 9 N/A
2:50 pm 14:50 Mostly Sunny 45 7 41 5 87 87 ENE 3 6 30.51 1033 7 11.26538 N/A
3:20 pm 15:20 Mostly Sunny 46 8 39 4 76 76 NE 3 6 30.51 1033 7 11.26538 N/A
3:50 pm 15:50 Mostly Sunny 46 8 41 5 82 82 ENE 6 9 30.51 1033 7 11.26538 N/A
4:20 pm 16:20 Mostly Sunny 46 8 41 5 82 82 NE 3 6 30.51 1033 7 11.26538 N/A
4:50 pm 16:50 Mostly Sunny 46 8 41 5 82 82 E 3 6 30.48 1032 7 11.26538 N/A
5:20 pm 17:20 Mostly Sunny 45 7 41 5 87 87 ENE 5 7 30.48 1032 7 11.26538 N/A
5:50 pm 17:50 Mostly Sunny 43 6 41 5 93 93 ENE 5 7 30.48 1032 7 11.26538 N/A
6:20 pm 18:20 Mostly Clear 39 4 37 3 93 93 E 5 7 30.48 1032 4.35 7 N/A
6:50 pm 18:50 Mostly Clear with Mist and Fog 39 4 39 4 100 100 ENE 6 9 30.48 1032 2.55 4.1 N/A
7:20 pm 19:20 Mostly Clear with Fog 36 2 36 2 100 100 ENE 6 9 30.48 1032 0.09 0.15 N/A
7:50 pm 19:50 Cloudy with Fog 36 2 36 2 100 100 ENE 6 9 30.48 1032 0.06 0.1 N/A

Powered by AerisWeather